• In United Kingdom
  • List of Countries
  • For 7 days
  • Water Temperature
  • Satellite Maps
  • Weather Map
  • Weather Widgets
  • user-avatar
    Login

    Hourly Weather Sidi Bu-l-Abbas

    Today, 17 January, Wednesday

    Time Temperature Precipitation Wind Pressure Humidity
    00:00 +9°C° 0 mm 2 mps 726 mmHg 56%
    01:00 +9°C° 0 mm 2 mps 725 mmHg 55%
    02:00 +9°C° 0 mm 2 mps 725 mmHg 54%
    03:00 +9°C° 0 mm 2 mps 725 mmHg 53%
    04:00 +8°C° 0 mm 2 mps 725 mmHg 53%
    05:00 +8°C° 0 mm 2 mps 724 mmHg 52%
    06:00 +8°C° 0 mm 2 mps 724 mmHg 52%
    07:00 +10°C° 0 mm 2 mps 725 mmHg 48%
    08:00 +12°C° 0 mm 2 mps 725 mmHg 44%
    09:00 +14°C° 0 mm 1 mps 725 mmHg 40%
    10:00 +16°C° 0 mm 1 mps 725 mmHg 35%
    11:00 +18°C° 0 mm 1 mps 725 mmHg 30%
    12:00 +20°C° 0 mm 1 mps 725 mmHg 25%
    13:00 +20°C° 0 mm 1 mps 725 mmHg 26%
    14:00 +19°C° 0 mm 2 mps 724 mmHg 27%
    15:00 +20°C° 0 mm 3 mps 724 mmHg 27%
    16:00 +18°C° 0 mm 2 mps 724 mmHg 33%
    17:00 +16°C° 0 mm 2 mps 724 mmHg 39%
    18:00 +14°C° 0 mm 2 mps 724 mmHg 45%
    19:00 +13°C° 0 mm 2 mps 724 mmHg 47%
    20:00 +12°C° 0 mm 2 mps 724 mmHg 48%
    21:00 +12°C° 0 mm 2 mps 724 mmHg 49%
    22:00 +10°C° 0 mm 2 mps 724 mmHg 50%
    23:00 +10°C° 0 mm 2 mps 724 mmHg 50%

    Tomorrow, 18 January, Thursday

    Time Temperature Precipitation Wind Pressure Humidity
    00:00 +10°C° 0 mm 2 mps 724 mmHg 50%
    01:00 +9°C° 0 mm 2 mps 723 mmHg 51%
    02:00 +9°C° 0 mm 2 mps 723 mmHg 51%
    03:00 +9°C° 0 mm 2 mps 723 mmHg 52%
    04:00 +9°C° 0 mm 2 mps 723 mmHg 51%
    05:00 +9°C° 0 mm 2 mps 723 mmHg 51%
    06:00 +8°C° 0 mm 2 mps 723 mmHg 51%
    07:00 +10°C° 0 mm 2 mps 723 mmHg 48%
    08:00 +12°C° 0 mm 2 mps 724 mmHg 44%
    09:00 +13°C° 0 mm 3 mps 724 mmHg 41%
    10:00 +16°C° 0 mm 3 mps 724 mmHg 36%
    11:00 +17°C° 0 mm 3 mps 724 mmHg 31%
    12:00 +19°C° 0 mm 3 mps 724 mmHg 25%
    13:00 +20°C° 0 mm 3 mps 723 mmHg 25%
    14:00 +20°C° 0 mm 3 mps 722 mmHg 25%
    15:00 +20°C° 0 mm 3 mps 722 mmHg 24%
    16:00 +18°C° 0 mm 3 mps 722 mmHg 31%
    17:00 +16°C° 0 mm 3 mps 721 mmHg 39%
    18:00 +13°C° 0 mm 3 mps 721 mmHg 46%
    19:00 +14°C° 0 mm 2 mps 721 mmHg 47%
    20:00 +14°C° 0 mm 2 mps 721 mmHg 48%
    21:00 +13°C° 0 mm 2 mps 721 mmHg 49%
    22:00 +13°C° 0 mm 2 mps 721 mmHg 50%
    23:00 +12°C° 0 mm 2 mps 721 mmHg 51%

    Day after tomorrow, 19 January, Friday

    Time Temperature Precipitation Wind Pressure Humidity
    00:00 +12°C° 0 mm 2 mps 720 mmHg 52%
    01:00 +12°C° 0 mm 2 mps 720 mmHg 52%
    02:00 +12°C° 0 mm 2 mps 720 mmHg 52%
    03:00 +10°C° 0 mm 2 mps 720 mmHg 52%
    04:00 +10°C° 0 mm 2 mps 719 mmHg 52%
    05:00 +11°C° 0 mm 1 mps 719 mmHg 52%
    06:00 +11°C° 0 mm 1 mps 719 mmHg 52%
    07:00 +11°C° 0 mm 1 mps 720 mmHg 53%
    08:00 +12°C° 0 mm 1 mps 720 mmHg 54%
    09:00 +13°C° 0 mm 1 mps 720 mmHg 55%
    10:00 +13°C° 0 mm 2 mps 720 mmHg 55%
    11:00 +14°C° 0 mm 2 mps 720 mmHg 56%
    12:00 +13°C° 0 mm 3 mps 720 mmHg 57%
    13:00 +13°C° 0 mm 4 mps 720 mmHg 63%
    14:00 +13°C° 0 mm 4 mps 720 mmHg 69%
    15:00 +12°C° 0 mm 5 mps 720 mmHg 75%
    16:00 +12°C° 0.1 mm 4 mps 720 mmHg 80%
    17:00 +11°C° 0.1 mm 4 mps 721 mmHg 85%
    18:00 +11°C° 0.1 mm 4 mps 721 mmHg 90%
    19:00 +11°C° 0.1 mm 4 mps 722 mmHg 90%
    20:00 +11°C° 0.1 mm 4 mps 723 mmHg 91%
    21:00 +10°C° 0.1 mm 4 mps 723 mmHg 92%
    22:00 +10°C° 0.1 mm 4 mps 723 mmHg 91%
    23:00 +10°C° 0.1 mm 4 mps 724 mmHg 91%

    20 January, Saturday

    Time Temperature Precipitation Wind Pressure Humidity
    00:00 +8°C° 0.1 mm 4 mps 724 mmHg 91%
    01:00 +9°C° 0 mm 3 mps 724 mmHg 90%
    02:00 +9°C° 0 mm 3 mps 724 mmHg 90%
    03:00 +8°C° 0 mm 3 mps 724 mmHg 90%
    04:00 +8°C° 0 mm 3 mps 724 mmHg 89%
    05:00 +8°C° 0 mm 2 mps 724 mmHg 87%
    06:00 +8°C° 0 mm 2 mps 725 mmHg 86%
    07:00 +9°C° 0 mm 2 mps 725 mmHg 82%
    08:00 +10°C° 0 mm 2 mps 726 mmHg 79%
    09:00 +11°C° 0 mm 3 mps 726 mmHg 75%
    10:00 +12°C° 0 mm 3 mps 726 mmHg 70%
    11:00 +13°C° 0 mm 4 mps 727 mmHg 65%
    12:00 +14°C° 0 mm 4 mps 727 mmHg 61%
    13:00 +14°C° 0 mm 4 mps 726 mmHg 59%
    14:00 +14°C° 0 mm 4 mps 726 mmHg 57%
    15:00 +14°C° 0 mm 5 mps 726 mmHg 54%
    16:00 +13°C° 0 mm 4 mps 726 mmHg 60%
    17:00 +12°C° 0 mm 3 mps 726 mmHg 66%
    18:00 +12°C° 0 mm 2 mps 726 mmHg 72%
    19:00 +10°C° 0 mm 2 mps 726 mmHg 73%
    20:00 +10°C° 0 mm 2 mps 727 mmHg 73%
    21:00 +10°C° 0 mm 2 mps 727 mmHg 73%
    22:00 +10°C° 0 mm 2 mps 727 mmHg 70%
    23:00 +10°C° 0 mm 2 mps 727 mmHg 67%

    21 January, Sunday

    Time Temperature Precipitation Wind Pressure Humidity
    00:00 +9°C° 0 mm 3 mps 727 mmHg 65%
    01:00 +9°C° 0 mm 3 mps 727 mmHg 62%
    02:00 +9°C° 0 mm 2 mps 726 mmHg 59%
    03:00 +9°C° 0 mm 2 mps 726 mmHg 57%
    04:00 +9°C° 0 mm 2 mps 726 mmHg 55%
    05:00 +9°C° 0 mm 2 mps 726 mmHg 53%
    06:00 +9°C° 0 mm 2 mps 727 mmHg 51%
    07:00 +10°C° 0 mm 2 mps 727 mmHg 49%
    08:00 +13°C° 0 mm 2 mps 728 mmHg 46%
    09:00 +14°C° 0 mm 2 mps 728 mmHg 43%
    10:00 +14°C° 0 mm 3 mps 728 mmHg 40%
    11:00 +17°C° 0 mm 3 mps 729 mmHg 38%
    12:00 +18°C° 0 mm 3 mps 729 mmHg 36%
    13:00 +18°C° 0 mm 3 mps 728 mmHg 37%
    14:00 +18°C° 0 mm 4 mps 728 mmHg 37%
    15:00 +18°C° 0 mm 4 mps 728 mmHg 38%
    16:00 +17°C° 0 mm 3 mps 728 mmHg 45%
    17:00 +15°C° 0 mm 2 mps 728 mmHg 52%
    18:00 +13°C° 0 mm 1 mps 728 mmHg 59%
    19:00 +12°C° 0 mm 1 mps 728 mmHg 60%
    20:00 +12°C° 0 mm 1 mps 728 mmHg 61%
    21:00 +11°C° 0 mm 1 mps 729 mmHg 62%
    22:00 +11°C° 0 mm 1 mps 728 mmHg 61%
    23:00 +11°C° 0 mm 1 mps 728 mmHg 60%

    22 January, Monday

    Time Temperature Precipitation Wind Pressure Humidity
    00:00 +11°C° 0 mm 1 mps 728 mmHg 59%
    01:00 +11°C° 0 mm 1 mps 728 mmHg 58%
    02:00 +11°C° 0 mm 1 mps 728 mmHg 58%
    03:00 +10°C° 0 mm 1 mps 728 mmHg 58%
    04:00 +10°C° 0 mm 1 mps 728 mmHg 60%
    05:00 +10°C° 0 mm 1 mps 728 mmHg 62%
    06:00 +10°C° 0 mm 1 mps 728 mmHg 65%
    07:00 +12°C° 0 mm 1 mps 728 mmHg 59%
    08:00 +14°C° 0 mm 1 mps 729 mmHg 52%
    09:00 +16°C° 0 mm 1 mps 729 mmHg 46%
    10:00 +18°C° 0 mm 1 mps 729 mmHg 42%
    11:00 +19°C° 0 mm 1 mps 729 mmHg 38%
    12:00 +21°C° 0 mm 1 mps 729 mmHg 34%
    13:00 +21°C° 0 mm 1 mps 728 mmHg 34%
    14:00 +21°C° 0 mm 1 mps 728 mmHg 33%
    15:00 +20°C° 0 mm 2 mps 727 mmHg 33%
    16:00 +20°C° 0 mm 1 mps 727 mmHg 39%
    17:00 +18°C° 0 mm 1 mps 727 mmHg 44%
    18:00 +15°C° 0 mm 1 mps 727 mmHg 50%
    19:00 +14°C° 0 mm 1 mps 727 mmHg 52%
    20:00 +14°C° 0 mm 1 mps 727 mmHg 53%
    21:00 +13°C° 0 mm 1 mps 727 mmHg 55%
    22:00 +13°C° 0 mm 1 mps 727 mmHg 55%
    23:00 +13°C° 0 mm 1 mps 727 mmHg 55%
    Show more